[[{"header":{"parameterUnit":"m.s-1","parameterCategory":1,"la1":30.2991,"la2":30.254,"lo1":-89.0895,"lo2":-89.0444,"dy":0.0017,"dx":0.0017,"nx":28,"ny":28,"refTime":"2025-04-10T03:00:00:Z","depth":0,"parameterNumber":2,"parameterNumberName":"U-component_of_WINDS"},"data":[0,0,0,0,0,0,0,0,0,0,0,0,0,0,0,0,0,0,0,0,0,0,0,0,0,0,0,0,0,0,0,0,0,0,0,0,0,0,0,0,0,0,0,0,0,0,0,0,0,0,0,0,0,0,0,0,0,0,2.2961,2.2961,0,2.3036,2.3037,2.3038,2.3018,2.3017,2.3015,2.3014,2.3091,2.3094,2.3097,0,0,0,0,0,0,0,0,0,0,0,0,0,2.2801,2.2804,2.2961,2.2962,2.2962,2.3036,2.3037,2.3038,2.3018,2.3017,2.3015,2.3013,2.309,2.3094,2.3098,0,0,0,0,0,0,0,0,0,0,0,0,0,2.2873,2.2805,2.296,2.2962,2.2962,2.3036,2.3037,2.3038,2.3019,2.3016,2.3014,2.3012,2.3088,2.3093,2.3098,2.3175,0,0,2.3114,2.3116,0,0,0,0,0,0,0,0,2.2869,2.2879,2.296,2.2962,2.2963,2.3015,2.3009,2.3084,2.3019,2.2997,2.3014,2.3011,2.3067,2.3074,2.3093,2.3179,2.3182,2.3115,2.3118,2.312,2.3121,0,0,0,0,0,0,0,2.2864,2.2876,2.299,2.2962,2.2963,2.2959,2.2967,2.3023,2.3044,2.2999,2.2998,2.3007,2.3068,2.3088,2.3095,2.3183,2.3114,2.3119,2.3122,2.3124,2.3337,2.3339,0,0,0,0,0,0,2.2858,2.2871,2.2988,2.2993,2.2909,2.2964,2.2972,2.3001,2.3043,2.3048,2.3009,2.3006,2.3081,2.3089,2.3097,2.3191,2.312,2.3125,2.3128,2.3334,2.3338,2.334,0,0,0,0,0,0,2.2855,2.2869,2.2985,2.2932,2.2946,2.2969,2.3001,2.3003,2.3024,2.3051,2.3054,2.3026,2.3079,2.309,2.3156,2.3193,2.3127,2.3132,2.3331,2.3335,2.3339,2.3378,0,0,0,0,0,0,2.285,2.2868,2.2896,2.2933,2.2949,2.3042,2.3003,2.3006,2.3033,2.303,2.3068,2.3072,2.3078,2.3149,2.3161,2.3199,2.3136,2.3328,2.3333,2.3338,2.3374,2.3383,2.3391,0,0,0,0,0,2.2845,2.2904,2.2898,2.2912,2.2986,2.3044,2.3054,2.306,2.3036,2.3066,2.3083,2.3071,2.3187,2.3156,2.317,2.321,2.3326,2.3332,2.3337,2.337,2.3381,2.3391,0,0,0,0,0,0,2.2871,2.2909,2.2902,2.2975,2.3007,2.3041,2.3078,2.3071,2.311,2.3105,2.3111,2.312,2.3188,2.3205,2.3169,2.3287,2.3253,2.3262,2.3273,2.3284,2.3292,2.3287,2.314,0,0,0,0,0,2.2885,2.293,2.296,2.3022,2.3038,2.3056,2.3081,2.3083,2.3116,2.3129,2.3151,2.3184,2.3228,2.3257,2.3299,2.3376,2.3385,2.3411,2.342,2.3427,2.3434,2.3478,2.349,2.3359,2.3359,2.3359,0,0,2.2915,2.2941,2.2969,2.3028,2.3052,2.3099,2.3067,2.3116,2.3151,2.3137,2.3201,2.3219,2.3255,2.3328,2.3361,2.3345,2.3473,2.3434,2.3439,2.3443,2.3485,2.3498,2.3509,2.3363,2.3362,2.3362,0,0,2.2994,2.3018,2.3072,2.3098,2.3136,2.3148,2.3161,2.3197,2.3208,2.3272,2.3263,2.3305,2.338,2.3407,2.3431,2.3522,2.3513,2.3536,2.358,2.3623,2.3633,2.3643,2.3676,2.3688,2.3543,2.3543,2.3543,0,2.3026,2.3095,2.3101,2.3152,2.3179,2.3169,2.3225,2.3249,2.3299,2.3318,2.3299,2.3395,2.3419,2.3499,2.3521,2.354,2.3556,2.3531,2.3631,2.3641,2.3649,2.3681,2.3694,2.3546,2.3546,2.3545,2.3545,0,2.3134,2.3182,2.3221,2.3271,2.3302,2.3355,2.337,2.3401,2.3401,2.3415,2.3481,2.351,2.3558,2.3578,2.3577,2.3658,2.3647,2.363,2.3596,2.3664,2.3695,2.3707,2.355,2.3549,2.3548,2.3547,0,0,2.3229,2.3282,2.3297,2.332,2.3362,2.34,2.3453,2.3501,2.3528,2.3563,2.3609,2.3674,2.366,2.3687,2.369,2.3727,2.3799,2.3706,2.3707,2.3723,2.3891,2.3904,2.3918,2.3794,2.3796,2.3798,2.3888,0,2.3312,2.3406,2.3414,2.3499,2.3544,2.3536,2.3583,2.3615,2.363,2.3671,2.3688,2.3734,2.3711,2.3727,2.3764,2.3783,2.3833,2.3776,2.3837,2.3839,2.3828,2.3933,2.3946,2.403,2.39,2.3902,2.3903,0,2.342,2.346,2.355,2.3587,2.3607,2.3649,2.3694,2.3733,2.3769,2.3778,2.3809,2.3808,2.3864,2.3828,2.3906,2.3868,2.3893,2.3906,2.391,2.3916,2.3875,2.3943,2.4057,2.407,2.3922,2.392,2.3919,0,2.3482,2.3558,2.3622,2.3642,2.3687,2.3717,2.3737,2.3771,2.38,2.384,2.3859,2.3905,2.393,2.3966,2.3977,2.395,2.4056,2.402,2.4065,2.4065,2.4087,2.4086,2.4208,2.4103,2.4103,2.4103,2.4102,0,2.3574,2.3629,2.365,2.369,2.3752,2.3761,2.3823,2.3841,2.3872,2.3916,2.3912,2.3953,2.3965,2.4009,2.4018,2.4082,2.4094,2.4103,2.4104,2.4103,2.4102,2.412,2.4114,2.4106,2.4105,2.4105,2.4104,0,2.3653,2.3669,2.3739,2.3777,2.3787,2.3832,2.3865,2.3903,2.3918,2.3973,2.3987,2.401,2.4062,2.4077,2.4138,2.4145,2.422,2.4216,2.4208,2.4208,2.4252,2.4248,2.439,2.4409,2.4292,2.4293,2.4294,0,2.371,2.3753,2.3796,2.3825,2.3847,2.3893,2.3923,2.3934,2.3966,2.4011,2.4045,2.4095,2.4136,2.4219,2.4242,2.4289,2.4287,2.4334,2.4294,2.4292,2.4289,2.4286,2.4291,2.4341,2.4342,2.4343,2.4344,0,2.3811,2.3817,2.386,2.3907,2.3943,2.398,2.4016,2.404,2.4057,2.4092,2.4145,2.4177,2.424,2.4291,2.434,2.4361,2.4356,2.4357,2.437,2.4369,2.4362,2.4367,2.4229,2.4353,2.4352,2.4352,2.4351,2.4351,2.3881,2.3919,2.3956,2.4005,2.4033,2.4067,2.4106,2.4126,2.417,2.4223,2.4227,2.4284,2.4321,2.4386,2.4411,2.4456,2.4443,2.4461,2.4466,2.447,2.4474,2.4355,2.4465,2.4465,2.4464,2.4464,2.4464,0,2.3982,2.4006,2.405,2.4101,2.414,2.4132,2.4172,2.4205,2.4255,2.429,2.4332,2.4393,2.4443,2.4471,2.4521,2.4552,2.4551,2.4565,2.4563,2.4568,2.4483,2.4467,2.4565,2.4565,2.4565,2.4565,2.4565,2.4565,2.4039,2.4103,2.4115,2.4194,2.4217,2.4274,2.4297,2.4329,2.4357,2.4426,2.4468,2.4486,2.4518,2.4571,2.4617,2.4624,2.4643,2.4658,2.4664,2.4584,2.4574,2.4564,2.4549,2.4662,2.4662,2.4745,2.4746,2.4746]},{"header":{"parameterUnit":"m.s-1","parameterCategory":1,"la1":30.2991,"la2":30.254,"lo1":-89.0895,"lo2":-89.0444,"dy":0.0017,"dx":0.0017,"nx":28,"ny":28,"refTime":"2025-04-10T03:00:00:Z","depth":0,"parameterNumber":3,"parameterNumberName":"V-component_of_WINDS"},"data":[0,0,0,0,0,0,0,0,0,0,0,0,0,0,0,0,0,0,0,0,0,0,0,0,0,0,0,0,0,0,0,0,0,0,0,0,0,0,0,0,0,0,0,0,0,0,0,0,0,0,0,0,0,0,0,0,0,0,-5.1536,-5.1538,0,-5.1721,-5.1723,-5.1725,-5.1701,-5.1698,-5.1695,-5.1692,-5.1883,-5.1891,-5.1899,0,0,0,0,0,0,0,0,0,0,0,0,0,-5.1163,-5.117,-5.1536,-5.1538,-5.154,-5.1721,-5.1723,-5.1726,-5.1702,-5.1698,-5.1694,-5.1691,-5.1881,-5.189,-5.19,0,0,0,0,0,0,0,0,0,0,0,0,0,-5.1334,-5.1172,-5.1535,-5.155,-5.1553,-5.172,-5.1723,-5.1727,-5.1702,-5.1698,-5.1693,-5.1689,-5.1878,-5.1889,-5.1901,-5.2066,0,0,-5.1937,-5.1942,0,0,0,0,0,0,0,0,-5.1325,-5.1348,-5.1545,-5.1549,-5.1553,-5.1683,-5.1662,-5.184,-5.1704,-5.1646,-5.1692,-5.1687,-5.1821,-5.1837,-5.1882,-5.2075,-5.2083,-5.1938,-5.1945,-5.1951,-5.1954,0,0,0,0,0,0,0,-5.1313,-5.134,-5.1609,-5.1548,-5.1553,-5.1548,-5.1567,-5.1696,-5.1757,-5.165,-5.1649,-5.1671,-5.1822,-5.187,-5.1886,-5.2086,-5.1938,-5.1949,-5.1956,-5.196,-5.2426,-5.2431,0,0,0,0,0,0,-5.1297,-5.133,-5.1603,-5.1615,-5.1425,-5.1558,-5.158,-5.1646,-5.1755,-5.1767,-5.1675,-5.167,-5.1852,-5.1872,-5.1893,-5.2095,-5.195,-5.1962,-5.1968,-5.2421,-5.2427,-5.2433,0,0,0,0,0,0,-5.1289,-5.1321,-5.1596,-5.1472,-5.1507,-5.157,-5.1644,-5.1652,-5.1701,-5.1774,-5.1785,-5.1713,-5.1849,-5.1876,-5.2023,-5.2101,-5.1967,-5.1978,-5.2415,-5.2423,-5.243,-5.25,0,0,0,0,0,0,-5.1278,-5.1319,-5.1381,-5.1474,-5.1513,-5.1723,-5.1649,-5.1659,-5.1721,-5.1716,-5.1813,-5.1824,-5.1848,-5.2006,-5.2035,-5.2115,-5.1987,-5.2408,-5.2418,-5.2427,-5.2491,-5.2509,-5.2524,0,0,0,0,0,-5.1265,-5.1393,-5.1385,-5.1418,-5.1593,-5.1727,-5.175,-5.1774,-5.1727,-5.1792,-5.1839,-5.1821,-5.2087,-5.2021,-5.2054,-5.2139,-5.2403,-5.2415,-5.2427,-5.2483,-5.2505,-5.2524,0,0,0,0,0,0,-5.1308,-5.1405,-5.1397,-5.1559,-5.1635,-5.1723,-5.1805,-5.1797,-5.1888,-5.1879,-5.1906,-5.1928,-5.2078,-5.2122,-5.2047,-5.2305,-5.2239,-5.2258,-5.2271,-5.2292,-5.2309,-5.2296,-5.1997,0,0,0,0,0,-5.1337,-5.1437,-5.1517,-5.1652,-5.169,-5.1741,-5.18,-5.1813,-5.1893,-5.1925,-5.1983,-5.2062,-5.2164,-5.223,-5.2327,-5.2496,-5.2518,-5.2571,-5.2588,-5.2601,-5.2618,-5.2713,-5.2738,-5.2471,-5.2471,-5.2471,0,0,-5.1396,-5.1462,-5.1524,-5.1662,-5.1723,-5.1828,-5.1768,-5.1881,-5.1959,-5.1942,-5.2086,-5.2131,-5.2221,-5.2381,-5.2454,-5.2423,-5.2696,-5.2616,-5.2626,-5.2636,-5.2728,-5.2753,-5.2776,-5.2479,-5.2478,-5.2477,0,0,-5.1559,-5.1618,-5.1738,-5.18,-5.1892,-5.1925,-5.1954,-5.2044,-5.2074,-5.2218,-5.2208,-5.2302,-5.2476,-5.2541,-5.2597,-5.2786,-5.2774,-5.2817,-5.2906,-5.2998,-5.3019,-5.3038,-5.3108,-5.3132,-5.2833,-5.2833,-5.2833,0,-5.1622,-5.1778,-5.1801,-5.1916,-5.1978,-5.1967,-5.209,-5.2149,-5.2269,-5.2313,-5.2276,-5.2495,-5.2555,-5.2731,-5.2777,-5.2822,-5.2857,-5.2807,-5.3014,-5.3033,-5.3051,-5.3118,-5.3144,-5.2838,-5.2837,-5.2837,-5.2836,0,-5.1852,-5.1961,-5.2047,-5.2164,-5.2235,-5.2353,-5.2395,-5.2465,-5.2471,-5.2508,-5.2656,-5.2728,-5.284,-5.2883,-5.2889,-5.3061,-5.3039,-5.3008,-5.2942,-5.3081,-5.3145,-5.317,-5.2845,-5.2843,-5.2841,-5.284,0,0,-5.2048,-5.2176,-5.2207,-5.2261,-5.2363,-5.2448,-5.2566,-5.2676,-5.2737,-5.282,-5.2921,-5.3069,-5.3042,-5.3106,-5.312,-5.3201,-5.3349,-5.316,-5.3163,-5.3195,-5.3545,-5.3569,-5.3598,-5.3341,-5.3346,-5.335,-5.3538,0,-5.2222,-5.2431,-5.2455,-5.2642,-5.2745,-5.2736,-5.284,-5.2914,-5.2952,-5.3045,-5.3087,-5.3193,-5.3148,-5.3186,-5.3266,-5.3314,-5.342,-5.3301,-5.3438,-5.3442,-5.3417,-5.3631,-5.3657,-5.3831,-5.3563,-5.3567,-5.357,0,-5.2453,-5.2544,-5.2741,-5.2831,-5.2874,-5.2967,-5.3071,-5.3159,-5.3244,-5.3266,-5.3338,-5.3343,-5.3466,-5.3394,-5.3566,-5.3485,-5.3542,-5.3574,-5.3582,-5.3597,-5.3516,-5.3655,-5.3887,-5.3914,-5.3609,-5.3606,-5.3603,0,-5.2579,-5.275,-5.2891,-5.2937,-5.3044,-5.311,-5.3158,-5.3238,-5.3303,-5.3394,-5.3437,-5.3541,-5.3599,-5.368,-5.3713,-5.3657,-5.3884,-5.3814,-5.3908,-5.3907,-5.3958,-5.3954,-5.4205,-5.3991,-5.399,-5.399,-5.3989,0,-5.2773,-5.2894,-5.2949,-5.3036,-5.3172,-5.3199,-5.3334,-5.3379,-5.3451,-5.3547,-5.3546,-5.3637,-5.3673,-5.377,-5.3796,-5.3936,-5.3962,-5.3984,-5.399,-5.3986,-5.3984,-5.4025,-5.4015,-5.3997,-5.3995,-5.3994,-5.3993,0,-5.2937,-5.2978,-5.3132,-5.3221,-5.3246,-5.3343,-5.342,-5.3505,-5.3542,-5.3664,-5.3695,-5.3753,-5.3868,-5.3908,-5.4046,-5.4064,-5.4227,-5.4222,-5.4199,-5.4201,-5.4293,-5.4285,-5.4581,-5.4622,-5.4379,-5.4381,-5.4383,0,-5.3059,-5.3152,-5.3252,-5.3317,-5.3367,-5.3471,-5.3538,-5.3568,-5.3638,-5.3743,-5.3816,-5.3929,-5.4021,-5.4205,-5.426,-5.4367,-5.4365,-5.4462,-5.4381,-5.4375,-5.437,-5.4365,-5.4375,-5.4477,-5.448,-5.4482,-5.4483,0,-5.3271,-5.3287,-5.3384,-5.3489,-5.3569,-5.3653,-5.3734,-5.3787,-5.383,-5.3909,-5.4026,-5.4098,-5.424,-5.4353,-5.4462,-5.4512,-5.4507,-5.4508,-5.4536,-5.4533,-5.4517,-5.453,-5.4242,-5.4502,-5.45,-5.4498,-5.4497,-5.4497,-5.342,-5.3503,-5.3587,-5.3696,-5.376,-5.3836,-5.3921,-5.3969,-5.4067,-5.4185,-5.4197,-5.4324,-5.4408,-5.4554,-5.4609,-5.471,-5.4683,-5.4723,-5.4733,-5.4743,-5.4751,-5.45,-5.4729,-5.4729,-5.4728,-5.4728,-5.4728,0,-5.3634,-5.3688,-5.3787,-5.3902,-5.3987,-5.3973,-5.4063,-5.4136,-5.4247,-5.4326,-5.4417,-5.4553,-5.4663,-5.4728,-5.4839,-5.4907,-5.4907,-5.4935,-5.4932,-5.4944,-5.4767,-5.4733,-5.4934,-5.4933,-5.4933,-5.4933,-5.4933,-5.4933,-5.3756,-5.3898,-5.3924,-5.4098,-5.4151,-5.4276,-5.4328,-5.44,-5.4463,-5.4614,-5.4706,-5.4747,-5.4821,-5.4938,-5.5039,-5.5056,-5.5098,-5.5129,-5.5143,-5.4977,-5.4956,-5.4936,-5.4904,-5.5137,-5.5137,-5.5312,-5.5313,-5.5315]}]]